Location: Daybis Observatory
(33.4273°N, 88.8061°W)
Time: 17:32:32
(UTC-05:00)

Daily predictions for brighter satellites

Satellite Brightness Start Highest point End
(mag) Time Altitude Azimuth Time Altitude Azimuth Time Altitude Azimuth
Cosmos 2181 Rocket 4.4 19:47:08 10° N 19:53:35 74° W 19:59:58 10° S
Cosmos 1340 3.3 19:51:20 10° SSE 19:54:46 34° E 19:58:13 10° NNE
GPS 2-05 Rocket1 3.1 19:55:11 10° W 19:58:31 57° SSW 20:01:50 10° ESE
Cosmos 1269 Rocket 4.3 19:53:18 10° NNW 19:58:37 76° WSW 20:03:53 10° S
In-Cosmos 22 Rocket 4.5 19:54:36 10° N 19:59:49 45° ENE 20:04:54 10° SSE
FREGAT/IRIS 2.6 19:59:24 10° S 20:02:20 86° WSW 20:05:18 10° NNW
Cosmos 1500 Rocket 4.4 19:59:27 10° NNW 20:03:49 55° W 20:08:07 10° S
Cosmos 2322 4.5 20:01:03 10° SSW 20:06:36 58° WNW 20:12:12 10° NNE
Cosmos 2074 Rocket 4.2 20:01:31 10° S 20:07:49 83° W 20:14:08 10° N
Sakura Rocket 3.8 20:09:16 10° WSW 20:13:51 35° S 20:16:52 14° ESE
Cosmos 1610 Rocket 4.4 20:08:29 10° S 20:14:33 73° E 20:20:41 10° N
SJ-6B 2.8 20:10:42 10° SSE 20:14:44 69° ENE 20:18:43 10° N
Thor Agena Rocket 3.6 20:10:47 10° NNE 20:15:59 62° ESE 20:21:12 10° S
Cosmos 1666 Rocket 4.2 20:12:41 10° NNE 20:16:49 36° E 20:20:54 10° SSE
Cosmos 1939 Rocket 3.7 20:14:36 11° SE 20:17:44 30° ENE 20:21:09 10° NNE
USA 186 2.2 20:18:08 20° ESE 20:18:47 23° ENE 20:20:39 10° NNE
HJ-1C 3.6 20:15:43 10° S 20:19:01 73° W 20:22:23 10° NNW
NOSS 2-1 (C) 4.2 20:16:02 10° SW 20:19:33 48° WNW 20:23:12 10° NNE
NOSS 2-1 (D) 4.3 20:17:02 10° SW 20:20:32 45° WNW 20:24:11 10° NNE
Cosmos 1809 Rocket 4.4 20:20:30 10° S 20:26:37 82° E 20:32:49 10° N
Cosmos 1151 Rocket 4.2 20:24:43 16° SE 20:26:49 23° E 20:30:11 10° NE
Sich 1 3.1 20:25:13 10° N 20:29:25 56° E 20:33:34 10° SSE
Spot 2 Rocket 4.3 20:26:22 16° SE 20:29:47 32° ENE 20:34:17 10° N
ATLAS 2AS CENTAUR R/B 3.8 20:23:29 10° NNW 20:30:30 34° NE 20:35:15 17° ESE
Cosmos 1980 3.8 20:36:02 10° S 20:41:29 50° ESE 20:46:57 10° NNE
Nadezhda 3 Rocket 4.0 20:36:11 10° N 20:42:30 74° E 20:48:50 10° SSE
Meteor 2-14 Rocket 4.4 20:38:30 10° S 20:44:34 85° E 20:50:42 10° N
OAO 2 Rocket 3.3 20:41:12 10° W 20:46:26 87° NNE 20:49:19 27° E
Meteor 1-27 4.2 20:42:47 10° S 20:48:32 77° E 20:54:13 10° NNE
Cosmos 1633 Rocket 2.9 20:45:30 10° N 20:49:51 73° E 20:52:48 20° SSE
Cosmos 2333 Rocket 2.3 20:44:19 10° SSW 20:49:59 81° WNW 20:55:40 10° NNE
Meteor 2-16 Rocket 4.4 20:47:54 10° S 20:54:02 83° E 21:00:11 10° N
Meteor 2-15 Rocket 4.4 20:49:02 10° N 20:55:12 88° W 21:01:19 10° S
COSMOS 2428 4.1 20:49:57 10° SW 20:55:18 41° WNW 21:00:42 10° N
Cosmos 1455 2.2 20:51:48 10° S 20:55:35 78° W 20:59:26 10° N
Cosmos 2228 Rocket 3.1 20:52:50 20° SSE 20:55:42 56° E 21:00:01 10° NNE
Cosmos 1515 Rocket 3.6 20:52:49 19° SSE 20:55:54 56° E 21:00:17 10° NNE
ERS-2 3.3 20:54:18 10° S 20:57:46 42° W 21:01:17 10° NNW
Cosmos 1408 3.7 20:59:09 10° NNE 21:01:43 28° NE 21:01:43 28° NE
Cosmos 1844 Rocket 2.9 20:57:02 10° NNW 21:02:41 71° WSW 21:06:44 19° S
Cosmos 1844 3.7 21:00:35 10° NNW 21:06:19 88° WSW 21:09:34 27° SSE
Cosmos 1892 3.3 21:02:40 10° NNW 21:06:29 56° W 21:08:57 20° SSW
SL-8 R/B 4.2 21:02:23 10° WSW 21:07:06 60° NW 21:11:52 10° NE
H-2A R/B 3.3 21:07:50 22° ENE 21:07:50 22° ENE 21:11:32 10° NNE
Cosmos 2219 Rocket 3.3 21:03:15 10° SW 21:08:39 46° WNW 21:14:05 10° N
Cosmos 2237 Rocket 2.1 21:03:29 10° SSW 21:09:06 83° ESE 21:14:44 10° NNE
OAO 3 Copernicus 4.5 21:04:43 10° SW 21:09:34 50° SSE 21:10:20 45° SE
ERS-1 Rocket 4.4 21:10:13 21° ENE 21:10:13 21° ENE 21:13:38 10° NNE
YAOGAN 6 4.0 21:12:22 17° SSW 21:14:38 36° W 21:17:59 10° NNW
Cosmos 1371 Rocket 4.0 21:11:57 25° S 21:14:53 58° ESE 21:20:08 10° NNE
USA 267 3.4 21:09:33 10° NE 21:15:46 45° SE 21:21:57 10° SSW
Cosmos 1328 Rocket 4.3 21:11:37 10° SSW 21:15:54 52° W 21:20:14 10° N
Resurs 01 Rocket 2.3 21:16:04 21° S 21:18:48 52° W 21:23:08 10° NNW
Genesis I 3.8 21:16:49 10° NNW 21:20:28 46° NE 21:20:28 46° NE
Cosmos 2278 Rocket 2.4 21:17:10 10° N 21:22:43 52° ENE 21:23:36 47° E
NOAA 11 4.1 21:20:32 34° S 21:23:02 87° WSW 21:28:34 10° NNW
OAO 1 4.4 21:19:23 10° WNW 21:24:54 80° SSW 21:26:00 58° ESE
Cosmos 1959 Rocket 4.3 21:23:07 24° S 21:27:05 80° E 21:33:13 10° N
ATLAS CENTAUR R/B 3.7 21:28:10 10° WSW 21:31:03 22° NW 21:34:02 10° N
Cosmos 1727 Rocket 4.3 21:25:29 10° N 21:31:21 45° E 21:31:34 44° E
Cosmos 1470 Rocket 3.7 21:27:36 10° N 21:32:00 71° W 21:32:39 60° SSW
ATLAS 3B CENTAUR R/B 4.4 21:25:00 10° W 21:32:44 19° SW 21:36:07 14° SSW
Cosmos 2056 Rocket 3.4 21:35:45 64° SSE 21:36:28 74° ESE 21:41:53 10° NNE
Cosmos 2098 Rocket 3.1 21:39:29 89° N 21:39:29 89° N 21:43:40 10° N
Cosmos 2218 Rocket 4.1 21:37:27 20° SSW 21:41:58 77° W 21:48:23 10° N
SL-08 R/B 4.4 21:42:00 42° S 21:44:21 88° E 21:50:47 10° N
Cosmos 1825 3.4 21:43:56 10° NNW 21:46:31 40° NNW 21:46:31 40° NNW
Cosmos 1624 Rocket 4.1 21:52:46 56° SW 21:53:43 70° WNW 21:58:54 10° NNE
Cosmos 2366 rocket 4.2 21:51:34 29° SSW 21:54:52 66° W 22:01:06 10° N
SL-16 R/B 2.4 21:59:34 61° NNE 21:59:34 61° NNE 22:04:11 10° NNE
Cosmos 2344 3.5 21:58:41 60° ESE 21:58:41 60° ESE 22:06:16 10° NE
Terra 4.2 22:05:06 13° NNE 22:05:06 13° NNE 22:05:53 10° NNE
ARGOS 3.3 22:07:10 68° WNW 22:07:10 68° WNW 22:12:12 10° NNW
GEOS 3 Rocket 4.0 22:02:34 10° NNE 22:07:49 61° NW 22:12:57 10° SW
MetOp-B 4.4 22:12:10 64° NW 22:12:10 64° NW 22:16:52 10° NNW
ATLAS 2AS CENTAUR R/B 3.4 22:14:21 10° NW 22:21:39 48° WSW 22:22:42 45° SW
ATLAS 2A CENTAUR R/B 4.0 22:23:34 10° WSW 22:36:37 46° SSW 22:36:37 46° SSW
Cosmos 2369 Rocket 4.5 22:38:42 10° NNE 22:40:15 15° NNE 22:40:15 15° NNE
H-2A R/B 3.7 22:48:27 28° WNW 22:48:27 28° WNW 22:51:27 10° NNW
NOSS 3-4 (A) 4.1 22:45:01 10° NNW 22:51:01 66° NNW 22:51:01 66° NNW
NOSS 3-4 (C) 4.1 22:45:06 10° NNW 22:51:06 66° NNW 22:51:06 66° NNW
USA 267 4.2 22:52:33 10° NNE 22:58:41 44° NW 23:04:47 10° WSW
Cosmos 2278 Rocket 4.4 23:02:44 10° WNW 23:05:28 17° W 23:05:28 17° W
ATLAS 5 CENTAUR R/B 4.4 23:09:58 10° N 23:12:39 19° NNE 23:12:39 19° NNE
